The Dalles, WA

6:32 PM PDT on May 24, 2018 (GMT -0700)
Columbia Gorge Regional-The Dalles

Weather History for KDLS - May, 2012

Change the Weather History Date:

Thursday, May 3, 2012

  Actual Average Record
Temperature  
Mean Temperature 56 °F -  
Max Temperature 66 °F 72 °F 92 °F (1966)
Min Temperature 48 °F 45 °F 32 °F (2007)
Degree Days  
Heating Degree Days 9    
Growing Degree Days 6 (Base 50)    
Moisture  
Dew Point 44 °F    
Average Humidity 74    
Maximum Humidity 89    
Minimum Humidity 43    
Precipitation  
Precipitation 0.29 in - - ()
Sea Level Pressure  
Sea Level Pressure 29.74 in    
Wind  
Wind Speed 6 mph (NW)    
Max Wind Speed 24 mph    
Max Gust Speed 36 mph    
Visibility 10 miles    
Events Rain    
Averages and records for this station are not official NWS values.
T = Trace of Precipitation, MM = Missing Value Source: NWS Daily Summary

Daily Weather History Graph

Daily Weather History Graph

Search for Another Location

Airport or City:

Astronomy

May. 03, 2012 Rise Set
Actual Time 5:48 AM PDT 8:15 PM PDT
Civil Twilight 5:15 AM PDT 8:48 PM PDT
Nautical Twilight 4:34 AM PDT 9:30 PM PDT
Astronomical Twilight 3:47 AM PDT 10:17 PM PDT
Moon 5:40 PM PDT (5/3) 4:03 AM PDT (5/3)
Length of Visible Light 15h 32m
Length of Day
14h 26m
Waxing Gibbous, 92% of the Moon is Illuminated
May 3
Waxing Gibbous
May 5
Full
May 12
Last Quarter
May 20
New
May 28
First Quarter

Hourly Weather History & Observations

Time (PDT) Temp. Dew Point Humidity Pressure Visibility Wind Dir Wind Speed Gust Speed Precip Events Conditions
12:53 AM 51.1 °F 41.0 °F 68% 29.75 in 10.0 mi NNW 4.6 mph - N/A   Overcast
1:53 AM 51.1 °F 42.1 °F 71% 29.74 in 10.0 mi NNW 3.5 mph - N/A   Overcast
2:53 AM 50.0 °F 42.1 °F 74% 29.72 in 10.0 mi NNW 9.2 mph - 0.00 in Rain Light Rain
3:53 AM 48.9 °F 44.1 °F 83% 29.72 in 10.0 mi NNW 4.6 mph - 0.01 in Rain Light Rain
4:53 AM 48.0 °F 45.0 °F 89% 29.72 in 8.0 mi NNW 6.9 mph - 0.05 in Rain Light Rain
5:53 AM 48.0 °F 45.0 °F 89% 29.70 in 8.0 mi NNW 4.6 mph - 0.04 in Rain Light Rain
6:53 AM 48.0 °F 45.0 °F 89% 29.69 in 9.0 mi Calm Calm - 0.04 in Rain Light Rain
7:53 AM 48.0 °F 45.0 °F 89% 29.69 in 6.0 mi Calm Calm - 0.06 in Rain Light Rain
8:06 AM 48.2 °F 44.6 °F 87% 29.69 in 9.0 mi Calm Calm - 0.00 in Rain Light Rain
8:34 AM 48.2 °F 44.6 °F 87% 29.68 in 9.0 mi Calm Calm - 0.01 in Rain Light Rain
8:46 AM 50.0 °F 44.6 °F 82% 29.68 in 10.0 mi Calm Calm - 0.02 in Rain Light Rain
8:53 AM 50.0 °F 45.0 °F 83% 29.68 in 10.0 mi Calm Calm - 0.02 in Rain Light Rain
9:49 AM 50.0 °F 44.6 °F 82% 29.67 in 8.0 mi Calm Calm - 0.01 in Rain Light Rain
9:53 AM 51.1 °F 45.0 °F 80% 29.67 in 9.0 mi NE 4.6 mph - 0.01 in Rain Light Rain
10:53 AM 52.0 °F 46.0 °F 80% 29.67 in 10.0 mi East 5.8 mph - 0.04 in Rain Light Rain
11:53 AM 52.0 °F 45.0 °F 77% 29.66 in 10.0 mi NE 8.1 mph - 0.01 in Rain Light Rain
12:53 PM 53.1 °F 48.0 °F 83% 29.67 in 10.0 mi NNW 8.1 mph - 0.01 in Rain Light Rain
1:21 PM 53.6 °F 48.2 °F 82% 29.66 in 10.0 mi NNW 10.4 mph - 0.00 in Rain Light Rain
1:53 PM 55.9 °F 48.9 °F 77% 29.66 in 10.0 mi NNW 9.2 mph - 0.00 in   Mostly Cloudy
2:53 PM 59.0 °F 48.9 °F 69% 29.67 in 10.0 mi NNW 8.1 mph - N/A   Mostly Cloudy
3:53 PM 59.0 °F 48.0 °F 67% 29.68 in 10.0 mi NW 11.5 mph - 0.00 in   Mostly Cloudy
4:53 PM 64.9 °F 42.1 °F 43% 29.71 in 10.0 mi West 20.7 mph 34.5 mph N/A   Scattered Clouds
5:53 PM 61.0 °F 41.0 °F 48% 29.78 in 10.0 mi West 24.2 mph 35.7 mph N/A   Mostly Cloudy
6:53 PM 57.0 °F 39.0 °F 51% 29.83 in 10.0 mi West 16.1 mph 29.9 mph N/A   Clear
7:53 PM 55.0 °F 37.9 °F 53% 29.86 in 10.0 mi West 19.6 mph - N/A   Clear
8:53 PM 53.1 °F 37.9 °F 57% 29.88 in 10.0 mi NW 10.4 mph - N/A   Clear
9:53 PM 51.1 °F 39.0 °F 63% 29.92 in 10.0 mi WNW 9.2 mph - N/A   Clear
10:53 PM 51.1 °F 37.9 °F 61% 29.95 in 10.0 mi West 8.1 mph - N/A   Clear
11:53 PM 48.9 °F 39.9 °F 71% 29.97 in 10.0 mi NW 8.1 mph - N/A   Clear